Location: Demmingen
(48.6757°N, 10.4375°E)
Time: 10:37:20
(UTC+00:00)

USA 267 - Pass Details

Date: 13 August 2024
Orbit: 1096 x 1111 km, 123.1° (Epoch: 03 September)

Event Time Altitude Azimuth Distance (km) Brightness Sun altitude
Rises 19:04:29 0° 165° (SSE) 3,904 5.7 -5.1°
Reaches altitude 10° 19:07:24 10° 177° (S) 2,953 5.2 -5.5°
Maximum altitude 19:12:46 27° 233° (SW) 1,984 4.9 -6.3°
Drops below altitude 10° 19:18:11 10° 289° (WNW) 2,974 7.1 -7.0°
Sets 19:21:08 0° 301° (WNW) 3,938 8.9 -7.4°
